User: anonymous   Login
Location: Unspecified
(0.0000°N, 0.0000°E)
Time: 08:51:49
(UTC+00:00)
Language:

Kitsat-3 - Orbit

View from above orbital plane
View from above orbital plane
View from above satellite
View from above satellite

Ground track
Ground track

The orbit data is extracted from the following two-line orbital elements,

1 25756U 99029A   19345.78935269 +.00000000 +00000-0 +11256-4 0  9994
2 25756 098.4610 281.1323 0013410 341.9113 018.1604 14.53774198089158
Epoch (UTC): 11 December 2019 18:56:40
Eccentricity: 0.0013410
inclination: 98.4610°
perigee height: 704 km
apogee height: 723 km
right ascension of ascending node: 281.1323°
argument of perigee: 341.9113°
revolutions per day: 14.53774198
mean anomaly at epoch: 18.1604°
orbit number at epoch: 8915

The dashed part of the orbit path shows where the satellite is in the earth's shadow,  

DLR